Flag Weather past 2 weeks in Pensacola, Florida, U.S.A.

Now
61 °F

Light rain. Fog.


Feels Like: 61 °F
Forecast: 48 / 67 °F
Wind: 8 mph from East

Location: Pensacola Regional Airport

Current Time: Nov 22, 2014 at 3:28:32 PM

Latest Report: Nov 22, 2014 at 2:53 PM


Visibility: 6 mi

Pressure: 30.12 "Hg

Humidity: 87%

Dew point: 57 °F

Location of PensacolaLocation

Historic Weather in Pensacola — Graph

°F

Pensacola temperature yesterday

Maximum temperature yesterday: 68 °F (at 12:53 PM)
Minimum temperature yesterday: 41 °F (at 3:53 AM)
Average temperature yesterday: 55 °F

Past Weeks' High & Low Weather Summary

 TemperatureHumidityPressure
High73 °F (Nov 11, 1:53 PM)100% (Nov 10, 4:53 AM)30.48 "Hg (Nov 10, 4:53 AM)
Low25 °F (Nov 19, 4:53 AM)20% (Nov 19, 11:53 AM)29.78 "Hg (Nov 17, 4:53 AM)
Average51 °F70%30.16 "Hg
* Reported Nov 7 1:53 PM — Nov 22 1:53 PM, Pensacola, Weather by CustomWeather, © 2014

Note: Actual official high and low records may vary slightly from our data, if they occured in-between our weather recording intervals... More about our weather records

Advertising

Pensacola weather history for previous 24 hours

 ConditionsComfort  
Time TempWeatherWind HumidityBarometerVisibility
1:53 PM
Nov 22
62 °FLight rain. Overcast.9 mph80%30.16 "Hg10 mi
12:53 PM63 °FOvercast.12 mph73%30.18 "Hg10 mi
11:53 AM64 °FOvercast.10 mph68%30.22 "Hg10 mi
10:53 AM65 °FMostly cloudy.5 mph56%30.25 "Hg10 mi
9:53 AM63 °FSunny.5 mph54%30.28 "Hg10 mi
8:53 AM57 °FSunny.7 mph60%30.29 "Hg10 mi
7:53 AM50 °FScattered clouds.7 mph71%30.30 "Hg10 mi
6:53 AM49 °FScattered clouds.7 mph69%30.28 "Hg10 mi
5:53 AM49 °FPassing clouds.7 mph69%30.30 "Hg10 mi
4:53 AM49 °FClear.7 mph66%30.29 "Hg10 mi
3:53 AM49 °FClear.7 mph71%30.28 "Hg10 mi
2:53 AM49 °FClear.5 mph71%30.29 "Hg10 mi
1:53 AM50 °FClear.7 mph71%30.29 "Hg10 mi
12:53 AM51 °FClear.5 mph69%30.30 "Hg10 mi
11:53 PM
Nov 21
52 °FClear.7 mph69%30.29 "Hg10 mi
10:53 PM54 °FClear.3 mph64%30.31 "Hg10 mi
9:53 PM54 °FClear.5 mph67%30.31 "Hg10 mi
8:53 PM57 °FClear.3 mph62%30.32 "Hg10 mi
7:53 PM54 °FClear.3 mph77%30.32 "Hg10 mi
6:53 PM55 °FClear.5 mph80%30.31 "Hg10 mi
5:53 PM55 °FClear.No wind80%30.30 "Hg10 mi
4:53 PM59 °FClear.No wind69%30.29 "Hg10 mi
3:53 PM65 °FClear.6 mph52%30.28 "Hg10 mi
Weather by CustomWeather, © 2014

See weather overviewHow to use our weather pages